#timestamp,LO_Frequency,Hit,StdDev 
1581033615.8,286047000.9,N
1581033635.6,286046998.2,N
1581033655.4,286046998.5,N
1581033675.3,286047002.8,N
1581033695.1,286047000.3,N
1581033715.9,286046998.5,N
1581033735.7,286047000.4,N
1581033755.5,286047000.0,N
1581033775.4,286046998.5,N
1581033795.2,286046999.8,N
1581033815.0,286047000.7,N
1581033815.9,286047000.7,N
1581033835.8,286047000.5,N
1581033855.6,286046999.8,N
1581033875.5,286047002.2,N
1581033895.3,286047001.9,N
1581033915.1,286047002.5,N
1581033935.9,286046999.9,N
1581033955.7,286047002.8,N
1581033975.5,286047000.5,N
1581033995.4,286047002.1,N
1581034015.2,286047000.3,N
1581034035.1,286046998.5,N
1581034036.0,286046998.5,N
1581034055.8,286046998.9,N
1581034075.6,286046999.5,N
1581034095.5,286046996.8,N
1581034115.3,286046998.6,N
1581034135.1,286046998.9,N
1581034155.9,286046999.3,N
1581034175.7,286046999.0,N
1581034195.6,286046999.1,N
1581034215.4,286046996.7,N
1581034235.2,286046999.0,N
1581034255.1,286046999.1,N
1581034256.0,286046999.1,N
1581034275.8,286046996.9,N
1581034295.6,286046996.8,N
1581034315.5,286046997.0,N
1581034335.3,286046996.6,N
1581034355.2,286046999.4,N
1581034375.9,286046998.0,N
1581034395.7,286046998.0,N
1581034415.6,286046998.0,N
1581034435.4,286046995.2,N
1581034455.3,286046996.1,N
1581034475.1,286046995.9,N
1581034476.0,286046995.9,N
1581034495.8,286046993.4,Y
1581034515.7,286046996.2,P
1581034535.5,286046993.4,P
1581034555.3,286046993.3,P
1581034575.2,286046993.9,N
1581034595.0,286046994.2,N
1581034595.9,286046994.2,Y
1581034615.8,286046998.6,P
1581034635.6,286046997.4,N
1581034655.4,286046996.6,N
1581034675.3,286046998.6,N
1581034695.1,286046998.3,N
1581034715.9,286047000.8,N
1581034735.7,286046998.6,N
1581034755.5,286047001.2,N
1581034775.4,286046998.2,N
1581034795.2,286046998.4,N
1581034815.0,286046997.1,N
1581034815.9,286046997.1,N
1581034835.8,286046997.4,N
1581034855.6,286046993.8,Y
1581034875.5,286046996.0,P
1581034895.3,286046996.4,P
1581034915.1,286046991.7,P
1581034935.9,286046994.0,N
1581034955.7,286046993.4,Y
1581034975.6,286046996.9,P
1581034995.4,286046997.7,N
1581035015.2,286046996.1,P
1581035035.1,286046995.2,Y
1581035036.0,286046995.2,P
1581035055.8,286047001.1,N
1581035075.6,286047001.2,N
1581035095.5,286047002.8,N
1581035115.3,286047000.1,N
1581035135.2,286047000.2,N
1581035155.9,286047002.8,N
1581035175.7,286047002.7,N
1581035195.6,286047002.7,N
1581035215.4,286046999.9,N
1581035235.2,286047000.4,N
1581035255.1,286047000.0,N
1581035256.0,286047000.0,N
1581035275.8,286047000.8,N
1581035295.7,286046997.7,N
1581035315.5,286046995.1,N
1581035335.3,286046997.9,N
1581035355.2,286046995.5,N
1581035375.0,286046997.7,N
1581035375.9,286046997.7,N
1581035395.7,286046996.5,N
1581035415.6,286046997.2,N
1581035435.4,286046997.6,N
1581035455.3,286046994.9,N
1581035475.1,286046996.4,N
1581035476.0,286046996.4,N
1581035495.8,286046994.2,N
1581035515.7,286046994.2,N
1581035535.5,286046993.9,N
1581035555.3,286046995.3,N
1581035575.2,286046995.3,N
1581035595.0,286046996.4,N
1581035595.9,286046996.4,N
1581035615.8,286046995.7,N
1581035635.6,286046995.4,N
1581035655.4,286046996.2,N
1581035675.3,286046995.8,N
1581035695.1,286046997.9,N
1581035715.9,286046995.1,N
1581035735.7,286046997.8,N
1581035755.5,286046997.8,N
1581035775.4,286046999.5,N
1581035795.2,286046998.5,N
1581035815.0,286046998.1,N
1581035816.0,286046998.1,N
1581035835.8,286046999.7,N
1581035855.6,286047000.0,N
1581035875.5,286047002.0,N
1581035895.3,286047002.6,N
1581035915.1,286047001.7,N
1581035935.9,286047002.5,N
1581035955.7,286047000.2,N
1581035975.6,286047001.2,N
1581035995.4,286047002.3,N
1581036015.2,286046998.5,N
1581036035.1,286046999.5,N
1581036036.0,286046999.5,N
1581036055.8,286046997.2,N
1581036075.6,286046999.0,N
1581036095.5,286047001.2,N
1581036115.3,286047002.7,N
1581036135.2,286047005.9,N
1581036155.9,286047005.4,N
1581036175.7,286047006.0,N
1581036195.6,286047006.0,N
1581036215.4,286047007.3,N
1581036235.3,286047005.0,N
1581036255.1,286047002.9,N
1581036256.0,286047002.9,N
1581036275.8,286047003.3,N
1581036295.7,286047003.4,N
1581036315.5,286047007.2,N
1581036335.3,286047006.8,N
1581036355.2,286047004.5,N
1581036375.0,286047004.6,N
1581036375.9,286047004.6,N
1581036395.8,286047007.5,N
1581036415.6,286047006.1,N
1581036435.4,286047007.6,N
1581036455.3,286047006.2,N
1581036475.1,286047006.4,N
1581036495.9,286047007.6,N
1581036515.8,286047007.6,N
1581036535.7,286047004.9,N
1581036555.5,286047007.1,N
1581036575.3,286047005.1,N
1581036595.2,286047003.0,N
1581036615.0,286047003.1,N
1581036615.9,286047003.1,N
1581036635.8,286047007.3,Y
1581036655.6,286047002.1,P
1581036675.4,286047002.0,N
1581036695.3,286047003.9,N
1581036715.1,286047001.6,N
1581036735.8,286047002.2,N
1581036755.7,286047000.5,N
1581036775.5,286047001.8,N
1581036795.4,286047002.7,N
1581036815.2,286047011.9,Y
1581036835.0,286046998.5,P
1581036835.9,286046998.5,N
1581036855.8,286046998.4,N
1581036875.6,286047002.3,N
1581036895.4,286047000.1,N
1581036915.3,286047001.5,N
1581036935.1,286047002.2,N
1581036955.9,286047002.1,N
1581036975.7,286047004.0,N
1581036995.5,286047005.1,N
1581037015.4,286047007.1,Y
1581037035.2,286047006.0,P
1581037055.1,286047003.7,N
1581037056.0,286047003.7,N
1581037075.8,286047003.5,N
1581037095.6,286047004.3,N
1581037115.5,286047001.5,N
1581037135.3,286047001.5,N
1581037155.1,286047004.4,N
1581037175.9,286047003.8,N
1581037195.7,286047001.5,N
